Terug naar catalogus

THORAD AGENA D DEB

ActiefPO
NORAD 5349·DEBRIS·🇺🇸 United States

Gelanceerd Apr 8, 1970 vanaf Vandenberg Space Force Base

Loading…

Volgende Passages (komende 24 uur)

TLE

VersSource: Space-Track

Epoch: Sep 14, 2026, 09:35 UTC

1 05349U 70025KN  26257.39957265  .00003208  00000-0  13572-2 0  9996
2 05349  99.8054 150.0382 0052096 276.8310  82.6940 14.25621368762626

Volg THORAD AGENA D DEB in realtime met AllMySat

Download on the App Store